CAPE
82 223 724 907 880 1070 1037 1122 1194 1217 1384 1289 1123 1146 1379 1584 1699 1667 1594 1561 1549 1454 1533 1766 1531 1661 1775 1545 1454 1332 1509 1272 913 831 1101 1295 1143 1763 2046 2175 1959 1792 1532
122 215 625 728 642 1103 1156 1234 1172 975 732 1036 1251 1213 1574 1443 1486 1497 1427 1321 1188 1353 1831 1561 1497 1555 1541 1557 1453 1452 1447 1414 1394 1185 1005 1142 1251 1024 1482 1653 1805 1805 1850
231 232 587 746 1042 980 1170 1102 1199 723 1385 949 1245 1186 1480 1709 1632 1725 1554 1553 1775 1442 1312 1645 1603 1476 1421 1406 1357 1224 958 1173 1233 1076 1276 571 380 1344 1485 1508 1603 1856 1794
252 308 774 758 1026 1029 1202 1115 1268 1298 1218 1053 936 1174 1727 1648 1706 1303 1061 1187 1163 1030 1197 1369 1459 1350 1217 1140 658 637 710 857 1052 1033 770 477 522 1304 1572 1720 1830 1805 1690
343 630 923 522 810 1057 1116 1152 1200 1198 586 1046 1065 491 540 938 897 1112 1164 881 1129 1472 1486 1386 1218 1052 913 837 717 766 854 1203 1264 1129 1031 393 593 902 1162 1598 1710 1413 1153
411 508 848 1265 1026 980 1252 1246 968 661 274 1365 917 1027 1566 1210 982 824 1210 1766 1471 1217 1047 948 1067 1180 1188 1040 930 953 1012 1204 1617 1456 1308 482 491 605 1225 1287 1402 1018 505
260 303 982 920 1127 1162 763 151 82 397 988 1496 791 1279 1759 1650 1318 1344 1322 1340 1288 1092 930 883 882 1077 1168 1064 983 652 473 928 591 334 610 922 558 572 931 1033 1032 1443 1182
249 302 715 971 1094 904 928 318 1181 1177 1136 1354 1617 1386 1279 1603 1450 1317 1110 992 984 850 815 821 825 911 1022 1146 873 322 304 630 187 431 459 718 633 660 1189 1576 1153 1112 1330
172 377 721 1003 915 1172 820 315 1400 1415 1422 1238 1305 1351 1090 1019 1127 928 830 707 759 552 519 413 707 905 1101 879 469 352 427 682 678 221 445 276 513 580 1359 1469 1038 344 841
205 244 409 657 757 715 440 316 713 1332 1181 758 775 1184 1522 1459 1225 1123 939 561 745 878 959 805 671 886 854 315 562 854 352 963 414 674 481 637 498 260 1337 1435 1118 698 327
197 139 274 285 684 785 1005 1227 1064 877 576 312 479 735 893 892 672 1055 1002 1175 1071 1031 615 674 895 1121 894 189 276 608 759 907 2 356 500 12 152 947 964 1505 1386 1356 927
125 144 185 306 321 320 657 610 627 874 655 435 406 370 420 384 584 971 1267 1400 1212 958 1367 1499 1702 1539 951 92 20 671 131 977 773 950 870 273 447 915 899 708 1325 1560 1514
86 153 312 345 99 32 166 67 240 327 355 262 97 273 662 865 941 828 711 522 177 151 936 1052 1046 823 101 27 194 533 250 485 529 933 804 307 228 1064 1532 1157 809 1054 1459
40 215 367 345 134 91 226 234 295 394 294 371 563 430 783 850 530 733 637 615 874 867 267 33 573 624 268 206 278 516 401 373 272 537 163 305 420 1194 1548 1103 1043 1028 959
92 175 376 357 187 132 247 71 164 81 86 172 305 606 999 879 873 893 895 612 195 56 482 473 609 557 405 526 706 921 777 550 279 235 127 326 968 740 921 1108 1162 1535 1466
4 41 149 176 144 18 9 6 42 127 283 420 552 646 1098 1046 1020 1115 996 544 5 139 798 851 769 729 823 1054 1001 857 431 376 294 270 239 294 570 185 617 885 1042 1562 1711
0 0 13 48 83 1 0 0 38 214 332 362 543 910 1044 985 839 993 1056 716 372 13 68 667 858 727 1083 706 435 233 249 197 87 149 214 369 254 206 656 1122 1081 1042 1113
0 0 0 110 6 0 24 5 92 75 196 88 101 184 178 727 844 1027 1011 1044 955 544 427 842 839 985 839 821 426 340 620 487 59 105 218 368 597 840 955 1244 1757 1654 995
0 0 0 40 5 0 1 0 13 35 157 106 50 40 97 548 844 942 1133 1473 1422 1010 1010 1027 814 689 947 861 672 798 710 253 276 165 86 226 233 176 103 73 287 847 1392
0 0 0 0 4 0 0 0 0 20 81 50 66 54 25 127 582 680 1402 1552 1426 1373 1123 816 780 810 567 349 520 672 316 269 204 222 273 287 258 187 175 195 356 468 339
0 0 0 0 0 0 0 0 0 0 0 0 12 19 330 366 97 381 1133 1409 1449 1561 1582 1157 1261 990 743 969 829 611 284 246 277 413 237 277 327 182 171 80 85 385 434
0 0 0 0 0 0 0 0 0 0 0 0 6 104 233 152 235 397 578 1273 1548 1618 1417 1635 1480 1141 1165 1057 1008 670 410 379 171 336 296 301 241 162 107 108 203 288 487
0 0 0 0 0 0 0 0 0 0 0 24 93 148 115 34 110 641 646 1006 1675 1355 1257 1464 1437 1262 1123 1165 994 780 554 405 702 442 464 280 262 53 0 0 0 3 162
0 0 0 0 0 0 0 0 0 0 0 0 0 53 102 382 505 654 756 990 771 237 869 397 1331 1352 1167 1006 1048 965 693 677 640 578 139 54 4 0 0 0 0 0 7
0 0 0 0 0 0 0 0 0 0 15 31 62 98 208 488 905 1155 1132 767 452 417 415 572 1191 1224 1201 1101 873 685 535 368 236 45 0 0 0 0 0 0 0 0 0
0 0 0 0 0 0 0 0 0 20 28 36 81 204 490 675 751 1196 1389 993 556 690 732 1393 1475 1041 901 687 482 468 317 201 32 6 0 0 0 0 0 0 0 0 0
CIN
-5 -5 -1 0 -2 0 0 0 0 0 0 0 0 0 0 0 0 0 0 -1 -1 0 0 0 0 0 0 0 -2 -5 -3 -17 -31 -44 -12 -9 -32 -8 -1 0 -2 -4 -3
-8 -3 -1 0 0 0 -1 0 0 0 -1 0 0 0 0 0 -1 -3 0 0 -1 -4 0 0 0 0 0 0 0 -1 -4 -4 -8 -24 -29 -23 -23 -46 -18 -8 -1 -2 0
-4 -4 -1 -1 0 0 0 0 0 -8 0 -1 0 0 -1 0 0 0 0 0 0 -4 -7 0 0 -3 0 0 -1 -4 -21 -18 -12 -23 -9 -59 -81 -19 -10 -3 -3 0 0
-5 -6 -1 -2 0 0 0 0 0 0 0 -1 0 0 0 0 0 -1 -10 -9 -9 -19 -12 -1 0 -1 -7 -6 -26 -26 -27 -22 -20 -23 -36 -60 -49 -13 -4 0 0 0 0
-6 -2 0 -5 0 0 0 0 0 0 -14 0 0 -34 -46 -15 -22 -10 -10 -28 -15 -4 -7 -5 -7 -12 -16 -20 -21 -30 -25 -14 -11 -14 -22 -82 -67 -26 -20 0 0 0 -4
-5 -2 -1 0 0 0 0 0 -4 -27 -60 0 -12 -11 0 -6 -21 -33 -15 -1 -12 -23 -27 -29 -16 -10 -11 -18 -19 -15 -19 -15 -9 -20 -25 -65 -78 -60 -7 -3 0 -9 -53
-3 -4 0 -1 0 0 -10 -77 -111 -59 -7 0 -14 -1 0 0 -9 -12 -13 -12 -15 -31 -35 -37 -35 -21 -14 -17 -15 -21 -34 -15 -66 -97 -77 -46 -62 -56 -24 -18 -22 0 -3
-4 -4 -2 -1 0 -7 -2 -46 -2 -5 -5 -1 0 0 0 0 -5 -18 -25 -29 -23 -31 -29 -41 -39 -30 -28 -27 -26 -41 -54 -40 -108 -95 -88 -49 -40 -34 -4 0 -19 -23 -8
-6 -8 -1 -1 -3 0 -2 -50 0 0 0 0 0 0 -8 -18 -13 -28 -28 -37 -29 -47 -56 -73 -62 -46 -35 -32 -43 -50 -47 -37 -42 -99 -69 -77 -59 -43 -1 0 -16 -100 -61
-7 -21 -28 -19 -16 -13 -29 -54 -18 -1 -2 -29 -40 -9 -1 -5 -15 -25 -37 -55 -47 -54 -41 -58 -68 -62 -60 -79 -53 -37 -82 -55 -94 -79 -86 -71 -60 -85 -7 -2 -7 -35 -87
-20 -65 -54 -73 -9 -5 -2 0 -2 -21 -45 -90 -70 -44 -42 -51 -65 -48 -51 -35 -34 -47 -63 -65 -60 -41 -68 -110 -102 -47 -65 -87 -29 -87 -114 -157 -174 -58 -36 -7 -8 -2 -23
-54 -68 -81 -55 -52 -70 -40 -62 -48 -31 -53 -85 -93 -92 -100 -99 -81 -56 -49 -30 -37 -63 -52 -47 -37 -50 -66 -145 -176 -82 -112 -77 -106 -85 -70 -107 -142 -100 -57 -57 -27 -8 0
-70 -60 -57 -55 -159 -189 -134 -185 -99 -91 -86 -119 -173 -122 -90 -68 -60 -70 -76 -92 -153 -149 -70 -63 -61 -66 -111 -151 -125 -103 -117 -100 -112 -108 -61 -134 -161 -91 -52 -41 -58 -28 -13
-94 -40 -55 -85 -113 -137 -101 -113 -94 -74 -111 -99 -92 -112 -67 -47 -58 -59 -70 -83 -66 -64 -105 -74 -61 -69 -92 -109 -115 -92 -109 -112 -126 -120 -174 -116 -102 -53 -44 -51 -63 -59 -52
-45 -61 -52 -66 -78 -119 -102 -165 -113 -135 -156 -136 -121 -93 -69 -60 -46 -49 -55 -83 -119 -88 -100 -78 -72 -75 -77 -68 -68 -49 -67 -100 -119 -141 -185 -136 -87 -97 -85 -72 -71 -54 -52
-46 -85 -82 -83 -112 -183 -48 -46 -141 -142 -127 -114 -101 -79 -52 -48 -44 -39 -40 -61 -19 -88 -69 -68 -71 -71 -57 -62 -40 -54 -81 -105 -126 -146 -171 -179 -125 -152 -98 -83 -81 -68 -59
0 0 -121 -107 -125 -30 0 -4 -150 -114 -113 -103 -83 -61 -42 -40 -52 -41 -42 -49 -73 -190 -143 -64 -51 -65 -45 -66 -79 -90 -99 -128 -173 -166 -153 -142 -155 -160 -114 -88 -81 -77 -46
0 0 0 -108 -48 0 -91 -37 -109 -135 -127 -142 -133 -130 -109 -52 -39 -34 -45 -37 -55 -71 -87 -47 -43 -32 -36 -52 -85 -88 -72 -104 -167 -171 -141 -141 -141 -109 -111 -89 -49 -43 -32
0 0 0 -119 -75 0 -4 0 -133 -150 -138 -140 -181 -159 -119 -61 -40 -47 -47 -31 -32 -47 -48 -49 -58 -82 -54 -66 -81 -63 -70 -113 -113 -167 -205 -181 -169 -167 -198 -157 -115 -74 -47
0 0 0 0 -48 0 0 0 0 -133 -143 -134 -165 -148 -143 -111 -65 -66 -44 -34 -48 -41 -50 -79 -84 -94 -120 -141 -104 -78 -103 -108 -148 -131 -107 -99 -99 -112 -157 -144 -107 -99 -97
0 0 0 0 0 0 0 0 0 0 0 0 -124 -156 -110 -108 -132 -80 -46 -40 -49 -44 -46 -81 -71 -81 -102 -96 -96 -97 -115 -129 -113 -125 -138 -128 -119 -140 -151 -226 -248 -112 -93
0 0 0 0 0 0 0 0 0 0 0 0 -61 -160 -139 -153 -125 -101 -71 -36 -41 -44 -46 -47 -56 -76 -82 -78 -46 -81 -143 -172 -199 -119 -119 -117 -126 -155 -185 -177 -133 -107 -72
0 0 0 0 0 0 0 0 0 0 0 -236 -193 -171 -182 -236 -187 -115 -98 -59 -42 -63 -51 -64 -58 -61 -48 -55 -58 -23 -58 -154 -131 -189 -159 -155 -153 -261 0 0 0 -104 -90
0 0 0 0 0 0 0 0 0 0 0 0 0 -268 -243 -178 -138 -105 -107 -97 -129 -243 -111 -194 -84 -65 -67 -58 -63 -51 -38 -13 -7 -187 -393 -346 -414 0 0 0 0 0 -110
0 0 0 0 0 0 0 0 0 0 -328 -315 -306 -305 -250 -198 -114 -80 -98 -145 -197 -207 -219 -168 -86 -65 -56 -37 -40 -66 -76 -95 -121 -324 0 0 0 0 0 0 0 0 0
0 0 0 0 0 0 0 0 0 -355 -333 -334 -323 -287 -220 -190 -163 -101 -77 -120 -187 -173 -164 -76 -63 -96 -78 -89 -120 -104 -128 -166 -312 -370 0 0 0 0 0 0 0 0 0
Wind_Speed
18 12 9 11 13 12 12 14 16 16 16 17 18 19 20 22 25 25 26 26 27 28 27 27 26 26 25 24 25 24 23 22 21 20 18 18 18 16 13 11 12 13 12
21 13 8 13 13 13 11 12 14 13 16 17 19 21 24 25 25 25 25 26 26 26 26 26 26 25 25 24 24 23 22 22 21 21 20 18 18 17 16 14 14 15 15
17 8 8 14 15 13 12 13 14 15 16 20 21 22 24 25 24 24 25 25 25 25 25 25 25 25 24 24 23 23 21 21 20 19 19 18 17 19 18 17 17 18 18
10 1 3 9 11 13 13 14 16 18 20 20 22 23 24 24 24 24 24 24 24 24 24 24 24 23 23 22 22 21 20 19 17 17 16 16 16 18 18 19 18 18 18
4 4 14 14 13 12 14 16 17 19 20 22 22 22 23 23 23 23 23 23 23 23 23 22 22 21 21 19 18 17 15 15 15 15 15 15 15 16 17 17 19 20 20
3 3 11 12 13 14 15 16 18 19 20 21 22 23 23 24 23 22 22 22 22 22 21 19 17 18 18 16 16 15 13 12 12 12 14 15 14 15 16 17 18 19 20
3 2 6 12 13 14 15 16 18 19 20 20 21 21 21 22 21 21 20 21 20 20 19 19 16 15 13 12 12 12 11 10 12 12 13 15 15 15 16 17 18 19 20
2 5 9 13 14 14 15 16 16 18 18 19 19 19 18 20 19 20 19 19 18 18 17 16 14 17 15 13 12 13 13 14 11 18 12 14 15 14 15 16 18 18 19
8 10 11 11 13 14 14 14 15 18 18 18 17 18 19 20 17 18 19 18 17 17 16 13 12 18 19 21 21 20 18 16 17 9 18 14 14 15 16 16 17 18 19
9 18 20 13 13 12 13 14 15 17 16 17 18 16 18 16 16 18 18 18 18 18 11 9 10 12 19 20 21 21 22 21 20 18 19 20 18 15 16 15 17 18 18
13 20 23 12 12 11 13 16 15 16 17 17 17 18 17 18 17 17 16 17 14 10 9 8 7 6 14 3 16 9 10 7 12 10 16 24 22 19 18 16 14 16 18
18 17 18 8 20 21 21 15 15 17 18 19 18 16 14 14 12 12 10 9 8 10 9 9 7 6 14 11 8 8 9 8 7 7 8 20 21 17 15 16 13 11 12
22 16 4 14 24 24 21 9 21 19 19 19 17 17 16 13 12 11 11 11 8 9 10 9 9 9 10 11 9 7 9 10 9 9 11 18 16 14 13 10 9 7 6
2 15 7 25 23 23 21 11 17 19 19 19 17 15 14 14 13 12 12 9 7 10 8 8 9 9 7 7 7 6 9 9 10 10 10 13 13 12 10 9 9 7 5
18 29 26 22 23 23 21 20 21 20 19 18 15 14 14 13 12 11 10 8 5 8 9 8 9 9 7 6 6 7 7 9 9 8 8 12 14 11 10 8 8 9 9
31 29 28 25 24 23 21 22 22 20 18 15 14 14 14 11 11 10 7 7 5 8 8 8 8 7 7 7 8 7 9 9 7 7 7 7 8 7 6 6 5 5 5
32 29 29 26 27 24 21 24 23 20 16 15 14 13 11 12 9 6 8 9 7 8 8 9 9 10 9 12 12 12 12 11 8 7 5 5 6 4 7 2 3 4 3
32 31 30 27 27 25 23 25 23 19 16 15 13 11 7 11 10 9 10 11 13 13 13 13 13 13 14 17 18 17 18 20 17 6 3 3 11 19 20 15 6 8 9
33 32 31 29 27 26 25 24 23 19 16 14 12 10 7 11 10 10 9 10 10 14 15 15 14 13 11 8 12 16 11 15 18 22 16 16 16 21 23 25 27 22 25
33 32 32 31 29 27 25 23 22 19 17 15 13 11 9 9 10 10 11 10 10 16 18 16 14 15 13 10 9 10 13 15 17 19 19 17 18 21 28 29 28 32 35
33 34 34 33 31 29 27 25 22 20 18 16 14 11 9 9 10 9 9 9 12 14 13 14 13 10 13 16 16 14 13 12 14 16 22 21 23 27 27 29 28 32 32
32 35 36 34 32 30 28 25 23 20 18 17 14 12 9 8 8 8 8 11 12 10 13 14 15 13 12 14 15 16 17 18 18 25 25 27 28 30 32 31 31 33 34
33 34 35 34 32 30 28 26 23 20 19 16 14 11 9 8 7 6 8 10 11 12 15 14 16 14 13 16 18 19 20 19 25 23 27 27 29 32 32 33 32 33 33
34 34 34 34 32 31 29 26 24 21 18 17 14 11 8 8 6 6 8 9 10 13 13 14 17 17 16 20 20 20 20 19 25 27 25 26 30 29 32 33 34 34 32
33 34 34 33 32 31 29 27 24 21 19 16 13 11 8 8 7 6 9 10 12 14 16 17 19 22 21 22 23 23 22 22 21 25 29 33 30 28 31 31 31 31 29
33 33 33 32 31 30 28 26 24 21 18 15 13 11 10 7 6 8 10 11 12 16 18 20 21 23 24 24 24 25 26 26 27 28 30 33 34 32 31 29 33 32 31
Wind_Direction
187 194 52 53 53 47 43 44 46 43 42 45 47 50 51 61 68 70 71 69 73 85 94 95 99 102 109 112 109 110 112 114 126 138 168 184 196 217 251 272 265 264 271
184 197 49 59 52 46 38 37 39 36 43 45 47 54 66 70 71 69 70 77 80 84 86 92 96 103 105 111 111 115 122 115 119 122 137 166 186 211 238 262 267 266 266
197 213 47 60 57 44 37 37 38 39 39 52 54 61 70 71 67 69 73 76 79 80 84 89 94 94 103 107 109 109 124 132 127 127 131 148 169 177 219 247 267 260 259
217 343 23 46 42 40 39 41 46 49 50 53 62 68 71 70 71 74 74 79 80 81 84 87 89 94 100 107 108 116 121 136 140 145 146 149 155 154 178 216 241 244 251
234 43 69 61 47 39 42 50 50 55 55 64 65 65 67 72 71 71 72 75 78 79 82 91 93 99 104 113 114 128 142 144 147 153 157 156 156 156 157 174 211 217 227
64 38 61 53 51 53 51 52 57 58 62 64 66 74 70 77 70 69 70 72 73 83 93 110 121 111 110 119 118 124 149 163 165 156 153 155 163 161 161 161 174 203 213
54 339 31 55 54 54 53 55 58 60 62 60 62 63 61 66 61 62 62 67 76 78 79 86 109 126 164 175 149 154 193 197 233 216 168 151 151 161 168 172 168 173 182
36 32 46 59 60 59 54 56 50 63 57 56 54 52 46 51 51 55 58 63 67 50 56 62 93 22 276 235 218 242 237 240 202 350 235 164 157 162 172 179 181 184 179
63 62 56 50 60 58 48 50 48 60 54 48 41 42 49 58 42 39 54 42 51 42 47 70 68 360 349 314 301 298 284 258 265 259 290 209 183 183 178 181 181 180 183
66 91 101 64 58 41 39 47 55 55 45 45 50 26 38 9 5 17 34 28 26 19 89 99 72 44 351 344 327 333 306 273 329 349 318 284 226 193 186 178 187 191 183
81 105 131 74 47 31 40 61 51 51 50 50 46 56 42 35 358 52 48 31 52 167 145 142 140 161 219 343 26 75 76 127 47 10 339 274 237 215 193 187 174 181 192
106 216 209 264 188 173 150 53 49 57 84 87 88 104 103 113 120 87 99 150 176 181 149 173 163 171 211 189 97 101 95 129 142 86 15 200 211 188 181 187 174 165 170
163 223 326 219 135 135 174 0 135 129 133 132 133 116 118 128 129 136 122 120 167 173 174 163 168 152 146 107 123 122 113 107 124 93 136 195 174 175 184 175 165 159 154
60 99 93 182 185 166 122 134 160 140 145 141 140 136 132 112 117 113 106 119 160 188 184 154 176 177 181 154 153 129 106 102 101 131 172 188 180 185 164 154 161 159 154
122 158 191 202 184 172 157 167 155 157 150 148 151 144 126 116 128 123 118 120 157 173 164 144 137 125 149 161 179 121 119 112 119 119 149 190 206 180 164 140 150 172 179
168 166 173 184 189 174 172 173 166 161 159 160 151 128 112 136 124 121 137 144 141 123 148 167 148 132 149 165 188 175 127 93 108 136 117 132 161 157 137 164 160 168 177
174 178 178 184 181 178 178 161 162 163 164 147 135 127 132 210 200 193 133 110 129 119 132 119 105 88 94 79 72 78 76 73 90 94 114 117 65 56 17 8 224 231 267
176 178 179 181 178 174 170 166 168 168 166 154 142 131 157 186 165 122 109 92 82 82 83 79 68 58 49 31 26 27 25 21 35 60 138 75 5 348 340 344 285 287 279
178 179 179 179 174 172 172 175 175 175 172 166 156 155 164 146 153 134 125 115 106 87 77 76 75 80 80 78 49 30 43 30 20 12 16 6 3 345 339 333 329 334 318
177 179 182 179 181 180 180 179 181 184 184 183 177 171 163 155 146 121 100 112 107 67 61 66 73 61 61 62 54 40 28 21 18 15 14 9 360 352 333 331 330 322 321
177 181 186 184 182 181 180 177 179 178 182 180 182 182 165 150 141 147 117 116 87 68 71 65 60 74 51 35 25 20 17 18 11 8 -0 357 350 345 342 337 332 330 325
173 180 182 185 181 178 175 175 174 172 171 174 173 168 163 149 138 137 124 85 76 75 59 55 47 45 40 36 27 18 15 4 10 353 353 349 348 345 341 339 335 331 326
173 173 176 177 177 177 175 174 173 171 174 167 164 166 164 143 132 127 122 89 77 62 50 48 39 36 33 25 19 13 7 3 354 356 352 351 349 345 344 342 340 337 334
174 173 173 176 177 177 175 172 170 167 165 167 171 173 179 151 148 134 113 99 76 57 46 38 32 27 24 15 14 12 9 3 354 351 357 355 351 350 347 344 341 340 339
172 172 174 175 176 175 174 173 171 172 174 175 170 177 178 161 124 113 97 78 58 43 37 31 24 19 17 12 8 5 4 3 3 354 348 348 351 352 349 347 346 344 342
172 171 171 171 173 173 173 173 175 175 175 176 178 173 170 147 122 86 71 58 48 34 29 26 23 17 13 10 7 6 3 360 356 353 348 346 345 348 349 350 346 342 340